Rochelle, IL

8:42 PM CDT on October 19, 2017 (GMT -0500)
Rochelle

Weather History for KRPJ - August, 2014

Change the Weather History Date:

Sunday, August 17, 2014

  Actual Average (KRFD) Record (KRFD)
Temperature  
Mean Temperature 68 °F -  
Max Temperature 78 °F 81 °F 102 °F (1988)
Min Temperature 58 °F 60 °F 46 °F (1924)
Cooling Degree Days 3    
Growing Degree Days 18 (Base 50)    
Moisture  
Dew Point 63 °F    
Average Humidity 83    
Maximum Humidity 96    
Minimum Humidity 64    
Precipitation  
Precipitation 0.00 in - - ()
Sea Level Pressure  
Sea Level Pressure 29.96 in    
Wind  
Wind Speed 4 mph (ENE)    
Max Wind Speed 10 mph    
Max Gust Speed -    
Visibility 8 miles    
Events      
Averages and records for this station are not official NWS values.
T = Trace of Precipitation, MM = Missing Value Source: NWS Daily Summary

Daily Weather History Graph

Daily Weather History Graph

Search for Another Location

Airport or City:

Trip Planner

Search our weather history database for the weather conditions in past years. The results will help you decide how hot, cold, wet, or windy it might be!

Date:

Astronomy

Aug. 17, 2014 Rise Set
Actual Time 6:06 AM CDT 7:53 PM CDT
Civil Twilight 5:36 AM CDT 8:23 PM CDT
Nautical Twilight 5:00 AM CDT 8:59 PM CDT
Astronomical Twilight 4:21 AM CDT 9:38 PM CDT
Moon No Moon Rise 1:59 PM CDT (8/17)
Length of Visible Light 14h 46m
Length of Day
13h 47m
Waning Gibbous, 48% of the Moon is Illuminated
Aug 17
Waning Gibbous
Aug 25
New
Sep 2
First Quarter
Sep 8
Full
Sep 15
Last Quarter

Hourly Weather History & Observations

Time (CDT) Temp. Dew Point Humidity Pressure Visibility Wind Dir Wind Speed Gust Speed Precip Events Conditions
12:15 AM 64.8 °F 63.3 °F 95% 29.94 in 10.0 mi South 4.6 mph - N/A   Clear
12:35 AM 64.4 °F 62.6 °F 94% 29.94 in 7.0 mi South 3.5 mph - N/A   Clear
12:55 AM 62.2 °F 60.4 °F 94% 29.95 in 7.0 mi Calm Calm - N/A   Clear
1:15 AM 63.3 °F 61.7 °F 94% 29.94 in 7.0 mi Calm Calm - N/A   Clear
1:35 AM 61.7 °F 60.3 °F 95% 29.94 in 5.0 mi Calm Calm - N/A   Clear
1:55 AM 62.8 °F 61.5 °F 96% 29.93 in 7.0 mi Calm Calm - N/A   Clear
2:15 AM 63.0 °F 61.5 °F 95% 29.93 in 7.0 mi Calm Calm - N/A   Clear
2:35 AM 63.0 °F 61.3 °F 94% 29.92 in 7.0 mi Calm Calm - N/A   Clear
2:55 AM 60.3 °F 58.8 °F 95% 29.93 in 5.0 mi Calm Calm - N/A   Clear
3:15 AM 60.1 °F 58.6 °F 95% 29.93 in 5.0 mi Calm Calm - N/A   Clear
3:35 AM 60.1 °F 58.8 °F 96% 29.94 in 7.0 mi Calm Calm - N/A   Clear
3:55 AM 59.9 °F 58.3 °F 94% 29.94 in 5.0 mi Calm Calm - N/A   Clear
4:15 AM 59.7 °F 58.3 °F 95% 29.94 in 5.0 mi Calm Calm - N/A   Clear
4:35 AM 58.8 °F 57.4 °F 95% 29.93 in 7.0 mi Calm Calm - N/A   Clear
4:55 AM 59.9 °F 58.5 °F 95% 29.94 in 7.0 mi NE 4.6 mph - N/A   Clear
5:15 AM 59.4 °F 58.1 °F 96% 29.94 in 5.0 mi NE 5.8 mph - N/A   Clear
5:35 AM 60.3 °F 59.0 °F 96% 29.95 in 4.0 mi ENE 5.8 mph - N/A   Clear
5:55 AM 59.9 °F 58.6 °F 96% 29.95 in 4.0 mi NE 5.8 mph - N/A   Clear
6:15 AM 61.2 °F 59.9 °F 96% 29.95 in 3.0 mi ENE 4.6 mph - N/A   Clear
6:35 AM 62.1 °F 60.8 °F 96% 29.96 in 4.0 mi East 4.6 mph - N/A   Clear
6:55 AM 63.0 °F 61.5 °F 95% 29.96 in 5.0 mi Calm Calm - N/A   Clear
7:15 AM 63.0 °F 61.2 °F 94% 29.97 in 4.0 mi East 3.5 mph - N/A   Clear
7:35 AM 65.1 °F 62.4 °F 91% 29.97 in 7.0 mi East 3.5 mph - N/A   Clear
7:55 AM 67.1 °F 63.7 °F 89% 29.97 in 10.0 mi East 8.1 mph - N/A   Clear
8:15 AM 68.0 °F 63.5 °F 85% 29.98 in 10.0 mi ENE 9.2 mph - N/A   Clear
8:30 AM 68.9 °F 64.6 °F 86% 29.98 in 10.0 mi ENE 9.2 mph - N/A   Clear
9:15 AM 68.0 °F 64.8 °F 89% 30.00 in 5.0 mi ENE 6.9 mph - N/A   Overcast
9:30 AM 68.4 °F 64.6 °F 88% 30.00 in 5.0 mi ENE 9.2 mph - N/A   Overcast
9:55 AM 69.1 °F 64.9 °F 87% 29.99 in 5.0 mi ENE 9.2 mph - N/A   Overcast
10:15 AM 69.6 °F 65.3 °F 86% 30.00 in 5.0 mi NE 9.2 mph - N/A   Haze
10:35 AM 70.7 °F 65.3 °F 83% 30.00 in 7.0 mi NE 9.2 mph - N/A   Overcast
10:55 AM 72.0 °F 65.3 °F 79% 29.99 in 7.0 mi NE 9.2 mph - N/A   Mostly Cloudy
11:15 AM 72.0 °F 65.5 °F 80% 29.99 in 10.0 mi NE 10.4 mph - N/A   Overcast
11:35 AM 73.8 °F 65.3 °F 75% 29.99 in 10.0 mi NE 9.2 mph - N/A   Mostly Cloudy
11:55 AM 74.5 °F 65.3 °F 73% 29.99 in 10.0 mi NE 10.4 mph - N/A   Scattered Clouds
12:15 PM 75.6 °F 65.1 °F 70% 29.99 in 10.0 mi NE 5.8 mph - N/A   Scattered Clouds
12:35 PM 75.4 °F 64.9 °F 70% 29.99 in 10.0 mi East 5.8 mph - N/A   Scattered Clouds
12:55 PM 77.0 °F 65.7 °F 68% 29.98 in 10.0 mi East 8.1 mph - N/A   Scattered Clouds
1:15 PM 77.0 °F 65.5 °F 67% 29.98 in 10.0 mi ENE 8.1 mph - N/A   Scattered Clouds
1:35 PM 76.6 °F 64.9 °F 67% 29.98 in 10.0 mi NNE 9.2 mph - N/A   Mostly Cloudy
1:55 PM 76.6 °F 65.7 °F 69% 29.99 in 10.0 mi North 5.8 mph - N/A   Scattered Clouds
2:15 PM 77.2 °F 64.8 °F 65% 29.98 in 10.0 mi NE 9.2 mph - N/A   Scattered Clouds
2:35 PM 77.9 °F 64.9 °F 64% 29.98 in 10.0 mi NE 8.1 mph - N/A   Scattered Clouds
2:55 PM 77.9 °F 65.5 °F 65% 29.97 in 10.0 mi ENE 6.9 mph - N/A   Mostly Cloudy
3:15 PM 77.0 °F 65.5 °F 67% 29.97 in 10.0 mi NE 9.2 mph - N/A   Mostly Cloudy
3:35 PM 77.4 °F 65.8 °F 67% 29.97 in 10.0 mi NE 9.2 mph - N/A   Mostly Cloudy
3:55 PM 77.4 °F 65.5 °F 67% 29.97 in 10.0 mi NNE 8.1 mph - N/A   Scattered Clouds
4:15 PM 77.9 °F 65.3 °F 65% 29.96 in 10.0 mi NE 8.1 mph - N/A   Scattered Clouds
4:35 PM 78.4 °F 65.7 °F 65% 29.96 in 10.0 mi NE 10.4 mph - N/A   Scattered Clouds
5:15 PM 77.9 °F 65.5 °F 65% 29.96 in 10.0 mi ENE 10.4 mph - N/A   Mostly Cloudy
5:35 PM 77.0 °F 65.1 °F 67% 29.95 in 10.0 mi ENE 6.9 mph - N/A   Scattered Clouds
5:55 PM 77.2 °F 65.1 °F 66% 29.95 in 10.0 mi ENE 5.8 mph - N/A   Scattered Clouds
6:15 PM 77.0 °F 64.6 °F 65% 29.95 in 10.0 mi ENE 8.1 mph - N/A   Clear
6:35 PM 75.7 °F 64.9 °F 69% 29.95 in 10.0 mi NE 6.9 mph - N/A   Scattered Clouds
6:55 PM 74.8 °F 64.6 °F 70% 29.94 in 10.0 mi NE 5.8 mph - N/A   Clear
7:15 PM 73.8 °F 64.6 °F 73% 29.94 in 10.0 mi NE 6.9 mph - N/A   Clear
7:35 PM 72.9 °F 64.8 °F 76% 29.94 in 10.0 mi NE 5.8 mph - N/A   Clear
7:55 PM 71.8 °F 64.4 °F 77% 29.94 in 10.0 mi NE 6.9 mph - N/A   Clear
8:15 PM 71.1 °F 64.4 °F 79% 29.94 in 10.0 mi ENE 5.8 mph - N/A   Clear
8:35 PM 70.7 °F 64.4 °F 80% 29.95 in 10.0 mi ENE 4.6 mph - N/A   Clear
8:55 PM 69.8 °F 64.4 °F 83% 29.96 in 10.0 mi East 5.8 mph - N/A   Clear
9:15 PM 68.9 °F 63.9 °F 84% 29.97 in 10.0 mi East 5.8 mph - N/A   Clear
9:35 PM 68.2 °F 63.3 °F 84% 29.97 in 10.0 mi East 4.6 mph - N/A   Clear
9:55 PM 66.0 °F 63.1 °F 90% 29.98 in 7.0 mi East 4.6 mph - N/A   Clear
10:15 PM 66.4 °F 63.0 °F 89% 29.98 in 10.0 mi East 4.6 mph - N/A   Clear
10:35 PM 65.3 °F 62.6 °F 91% 29.99 in 10.0 mi Calm Calm - N/A   Clear
10:55 PM 64.9 °F 62.2 °F 91% 29.98 in 10.0 mi East 4.6 mph - N/A   Clear
11:15 PM 64.8 °F 61.9 °F 90% 29.98 in 10.0 mi East 4.6 mph - N/A   Clear
11:35 PM 64.0 °F 61.5 °F 91% 29.97 in 10.0 mi East 3.5 mph - N/A   Clear
11:55 PM 62.6 °F 60.8 °F 94% 29.97 in 7.0 mi ESE 3.5 mph - N/A   Clear